Flag for Bhutan Weather past 2 weeks in Phuntsholing, Bhutan

Now
50 °F

Light rain. Mostly cloudy.


Feels Like: 49 °F
Forecast: 56 / 80 °F
Wind: 3 mph from South

Location: Kathmandu Airport

Current Time: Mar 3, 2015 at 6:39:25 AM

Latest Report: Mar 3, 2015 at 5:50 AM


Visibility: 1 mi

Pressure: 30.04 "Hg

Humidity: 94%

Dew point: 48 °F

Location of PhuntsholingLocation

Historic Weather in Phuntsholing — Graph

°F

Phuntsholing temperature yesterday

Maximum temperature yesterday: 55 °F (at 3:50 PM)
Minimum temperature yesterday: 50 °F (at 7:50 AM)
Average temperature yesterday: 52 °F

Past Weeks' High & Low Weather Summary

 TemperatureHumidityPressure
High72 °F (Feb 22, 1:50 PM)100% (Feb 20, 3:50 AM)30.33 "Hg (Feb 20, 3:50 AM)
Low45 °F (Feb 19, 4:50 AM)27% (Feb 28, 1:50 PM)29.95 "Hg (Feb 21, 3:50 PM)
Average57 °F77%30.09 "Hg
* Reported Feb 16 4:50 AM — Mar 3 4:50 AM, Phuntsholing, Weather by CustomWeather, © 2015

Note: Actual official high and low records may vary slightly from our data, if they occured in-between our weather recording intervals... More about our weather records

Advertising

Phuntsholing weather history for previous 24 hours

 ConditionsComfort  
Time TempWeatherWind HumidityBarometerVisibility
4:50 AM
Tue, Mar 3
50 °FLight rain. Mostly cloudy.3 mph94%30.04 "Hg2 mi
3:50 AM48 °FFog.No wind100%30.07 "Hg2 mi
2:50 AM50 °FFog.3 mph94%30.07 "Hg3 mi
1:50 AM50 °FFog.2 mph100%30.09 "Hg3 mi
12:50 AM50 °FFog.3 mph94%30.12 "Hg3 mi
11:50 PM
Mon, Mar 2
52 °FPartly cloudy.2 mph94%30.12 "Hg4 mi
10:50 PM52 °FPartly cloudy.No wind94%30.12 "Hg4 mi
9:50 PM54 °FMostly cloudy.2 mph88%30.15 "Hg4 mi
8:50 PM54 °FMostly cloudy.No wind94%30.15 "Hg4 mi
7:50 PM54 °FMostly cloudy.No wind88%30.15 "Hg5 mi
6:50 PM54 °FBroken clouds.3 mph88%30.12 "Hg5 mi
5:50 PM55 °FBroken clouds.2 mph82%30.12 "Hg5 mi
4:50 PM55 °FBroken clouds.3 mph82%30.07 "Hg5 mi
3:50 PM55 °FBroken clouds.12 mph82%30.09 "Hg5 mi
2:50 PM54 °FBroken clouds.14 mph82%30.12 "Hg5 mi
1:50 PM52 °FRain. More clouds than sun.No wind100%30.21 "Hg2 mi
12:50 PM52 °FRain. More clouds than sun.3 mph94%30.27 "Hg2 mi
11:50 AM52 °FRain. More clouds than sun.3 mph94%30.27 "Hg2 mi
10:50 AM50 °FRain. More clouds than sun.3 mph94%30.30 "Hg2 mi
9:50 AM50 °FRain. More clouds than sun.6 mph94%30.27 "Hg2 mi
8:50 AM50 °FRain. More clouds than sun.No wind94%30.27 "Hg2 mi
7:50 AM50 °FRain. More clouds than sun.No wind94%30.21 "Hg2 mi
6:50 AMN/ARain.No windN/A30.18 "Hg3 mi
Weather by CustomWeather, © 2015

See weather overviewHow to use our weather pages